Location: Ellerstadt
(49.4644°N, 8.2615°E)
Time: 20:06:29
(UTC+00:00)

Vanguard 1 - Pass Details

Date: 22 June 2021
Orbit: 651 x 3831 km, 34.2° (Epoch: 29 July)

Event Time Altitude Azimuth Distance (km) Brightness Sun altitude
Rises 18:04:46 0° 206° (SSW) 7,470 14.6 12.1°
Reaches altitude 10° 18:10:37 10° 197° (SSW) 6,713 14.3 11.2°
Maximum altitude 18:28:39 31° 145° (SE) 5,292 13.4 8.6°
Drops below altitude 10° 18:44:54 10° 94° (E) 6,118 13.6 6.2°
Sets 18:49:47 0° 85° (E) 6,757 13.8 5.5°
